• In Russia
  • List of Countries
  • For 7 days
  • Water Temperature
  • Satellite Maps
  • Weather Map
  • Weather Widgets
  • user-avatar
    Login

    Hourly Weather Makadi Bey

    Today, 17 August, Friday

    Time Temperature Precipitation Wind Pressure Humidity
    00:00 +31°C° 0 mm 2 mps 703 mmHg 26%
    01:00 +30°C° 0 mm 1 mps 703 mmHg 27%
    02:00 +30°C° 0 mm 1 mps 703 mmHg 27%
    03:00 +29°C° 0 mm 1 mps 703 mmHg 28%
    04:00 +29°C° 0 mm 1 mps 703 mmHg 29%
    05:00 +28°C° 0 mm 1 mps 703 mmHg 31%
    06:00 +30°C° 0 mm 2 mps 704 mmHg 28%
    07:00 +31°C° 0 mm 2 mps 704 mmHg 26%
    08:00 +34°C° 0 mm 2 mps 704 mmHg 25%
    09:00 +36°C° 0 mm 2 mps 704 mmHg 22%
    10:00 +37°C° 0 mm 2 mps 705 mmHg 19%
    11:00 +38°C° 0 mm 3 mps 705 mmHg 17%
    12:00 +39°C° 0 mm 3 mps 704 mmHg 16%
    13:00 +41°C° 0 mm 4 mps 704 mmHg 15%
    14:00 +40°C° 0 mm 4 mps 704 mmHg 15%
    15:00 +40°C° 0 mm 4 mps 704 mmHg 15%
    16:00 +39°C° 0 mm 3 mps 704 mmHg 15%
    17:00 +39°C° 0 mm 3 mps 703 mmHg 15%
    18:00 +38°C° 0 mm 3 mps 703 mmHg 17%
    19:00 +36°C° 0 mm 3 mps 703 mmHg 19%
    20:00 +35°C° 0 mm 2 mps 703 mmHg 20%
    21:00 +34°C° 0 mm 2 mps 703 mmHg 21%
    22:00 +34°C° 0 mm 2 mps 703 mmHg 22%
    23:00 +32°C° 0 mm 2 mps 703 mmHg 23%

    Tomorrow, 18 August, Saturday

    Time Temperature Precipitation Wind Pressure Humidity
    00:00 +31°C° 0 mm 2 mps 703 mmHg 24%
    01:00 +31°C° 0 mm 2 mps 703 mmHg 25%
    02:00 +30°C° 0 mm 2 mps 702 mmHg 26%
    03:00 +29°C° 0 mm 2 mps 702 mmHg 28%
    04:00 +29°C° 0 mm 2 mps 702 mmHg 29%
    05:00 +28°C° 0 mm 2 mps 702 mmHg 30%
    06:00 +30°C° 0 mm 2 mps 702 mmHg 27%
    07:00 +31°C° 0 mm 2 mps 703 mmHg 24%
    08:00 +34°C° 0 mm 2 mps 703 mmHg 21%
    09:00 +35°C° 0 mm 3 mps 703 mmHg 19%
    10:00 +37°C° 0 mm 3 mps 703 mmHg 16%
    11:00 +38°C° 0 mm 3 mps 704 mmHg 14%
    12:00 +40°C° 0 mm 4 mps 703 mmHg 13%
    13:00 +41°C° 0 mm 4 mps 703 mmHg 12%
    14:00 +42°C° 0 mm 5 mps 703 mmHg 11%
    15:00 +42°C° 0 mm 5 mps 702 mmHg 12%
    16:00 +41°C° 0 mm 5 mps 702 mmHg 12%
    17:00 +41°C° 0 mm 5 mps 702 mmHg 12%
    18:00 +38°C° 0 mm 4 mps 702 mmHg 15%
    19:00 +37°C° 0 mm 3 mps 702 mmHg 17%
    20:00 +35°C° 0 mm 2 mps 702 mmHg 19%
    21:00 +34°C° 0 mm 2 mps 702 mmHg 20%
    22:00 +34°C° 0 mm 2 mps 702 mmHg 21%
    23:00 +32°C° 0 mm 2 mps 702 mmHg 22%

    Day after tomorrow, 19 August, Sunday

    Time Temperature Precipitation Wind Pressure Humidity
    00:00 +31°C° 0 mm 2 mps 702 mmHg 23%
    01:00 +31°C° 0 mm 2 mps 701 mmHg 23%
    02:00 +30°C° 0 mm 2 mps 701 mmHg 24%
    03:00 +30°C° 0 mm 2 mps 701 mmHg 26%
    04:00 +29°C° 0 mm 2 mps 701 mmHg 28%
    05:00 +29°C° 0 mm 2 mps 701 mmHg 30%
    06:00 +30°C° 0 mm 2 mps 701 mmHg 28%
    07:00 +31°C° 0 mm 2 mps 702 mmHg 27%
    08:00 +34°C° 0 mm 2 mps 702 mmHg 25%
    09:00 +35°C° 0 mm 2 mps 703 mmHg 23%
    10:00 +37°C° 0 mm 3 mps 703 mmHg 20%
    11:00 +38°C° 0 mm 3 mps 703 mmHg 17%
    12:00 +40°C° 0 mm 4 mps 702 mmHg 16%
    13:00 +41°C° 0 mm 4 mps 702 mmHg 15%
    14:00 +42°C° 0 mm 5 mps 702 mmHg 15%
    15:00 +41°C° 0 mm 4 mps 701 mmHg 15%
    16:00 +41°C° 0 mm 4 mps 701 mmHg 16%
    17:00 +40°C° 0 mm 4 mps 701 mmHg 17%
    18:00 +38°C° 0 mm 3 mps 701 mmHg 19%
    19:00 +37°C° 0 mm 3 mps 701 mmHg 21%
    20:00 +36°C° 0 mm 2 mps 701 mmHg 23%
    21:00 +35°C° 0 mm 2 mps 702 mmHg 24%
    22:00 +34°C° 0 mm 2 mps 702 mmHg 24%
    23:00 +34°C° 0 mm 2 mps 702 mmHg 25%

    20 August, Monday

    Time Temperature Precipitation Wind Pressure Humidity
    00:00 +32°C° 0 mm 1 mps 701 mmHg 26%
    01:00 +31°C° 0 mm 1 mps 701 mmHg 27%
    02:00 +31°C° 0 mm 1 mps 701 mmHg 28%
    03:00 +30°C° 0 mm 1 mps 701 mmHg 29%
    04:00 +30°C° 0 mm 1 mps 701 mmHg 29%
    05:00 +30°C° 0 mm 2 mps 701 mmHg 30%
    06:00 +31°C° 0 mm 2 mps 701 mmHg 28%
    07:00 +32°C° 0 mm 2 mps 702 mmHg 26%
    08:00 +35°C° 0 mm 2 mps 702 mmHg 25%
    09:00 +36°C° 0 mm 2 mps 703 mmHg 23%
    10:00 +37°C° 0 mm 3 mps 703 mmHg 21%
    11:00 +39°C° 0 mm 3 mps 703 mmHg 19%
    12:00 +41°C° 0 mm 4 mps 703 mmHg 17%
    13:00 +41°C° 0 mm 5 mps 703 mmHg 16%
    14:00 +42°C° 0 mm 5 mps 702 mmHg 15%
    15:00 +41°C° 0 mm 5 mps 702 mmHg 15%
    16:00 +41°C° 0 mm 5 mps 702 mmHg 15%
    17:00 +40°C° 0 mm 4 mps 702 mmHg 15%
    18:00 +38°C° 0 mm 4 mps 702 mmHg 17%
    19:00 +37°C° 0 mm 3 mps 703 mmHg 19%
    20:00 +36°C° 0 mm 2 mps 703 mmHg 21%
    21:00 +35°C° 0 mm 2 mps 703 mmHg 23%
    22:00 +34°C° 0 mm 2 mps 703 mmHg 24%
    23:00 +34°C° 0 mm 2 mps 703 mmHg 25%

    21 August, Tuesday

    Time Temperature Precipitation Wind Pressure Humidity
    00:00 +32°C° 0 mm 2 mps 703 mmHg 26%
    01:00 +31°C° 0 mm 2 mps 703 mmHg 27%
    02:00 +31°C° 0 mm 1 mps 702 mmHg 28%
    03:00 +30°C° 0 mm 1 mps 703 mmHg 29%
    04:00 +30°C° 0 mm 1 mps 703 mmHg 30%
    05:00 +29°C° 0 mm 1 mps 703 mmHg 31%
    06:00 +31°C° 0 mm 2 mps 703 mmHg 29%
    07:00 +32°C° 0 mm 2 mps 704 mmHg 27%
    08:00 +35°C° 0 mm 2 mps 705 mmHg 25%
    09:00 +36°C° 0 mm 3 mps 705 mmHg 23%
    10:00 +37°C° 0 mm 3 mps 705 mmHg 20%
    11:00 +38°C° 0 mm 4 mps 705 mmHg 18%
    12:00 +40°C° 0 mm 4 mps 705 mmHg 17%
    13:00 +41°C° 0 mm 4 mps 704 mmHg 16%
    14:00 +42°C° 0 mm 5 mps 704 mmHg 15%
    15:00 +41°C° 0 mm 5 mps 704 mmHg 15%
    16:00 +41°C° 0 mm 5 mps 704 mmHg 16%
    17:00 +40°C° 0 mm 4 mps 703 mmHg 16%
    18:00 +38°C° 0 mm 3 mps 704 mmHg 18%
    19:00 +37°C° 0 mm 3 mps 704 mmHg 20%
    20:00 +36°C° 0 mm 2 mps 704 mmHg 22%
    21:00 +34°C° 0 mm 1 mps 704 mmHg 23%
    22:00 +33°C° 0 mm 1 mps 704 mmHg 24%
    23:00 +33°C° 0 mm 1 mps 704 mmHg 25%

    22 August, Wednesday

    Time Temperature Precipitation Wind Pressure Humidity
    00:00 +32°C° 0 mm 1 mps 704 mmHg 25%
    01:00 +32°C° 0 mm 1 mps 703 mmHg 26%
    02:00 +31°C° 0 mm 1 mps 703 mmHg 26%
    03:00 +31°C° 0 mm 2 mps 703 mmHg 27%
    04:00 +30°C° 0 mm 2 mps 703 mmHg 27%
    05:00 +30°C° 0 mm 2 mps 703 mmHg 28%
    06:00 +31°C° 0 mm 2 mps 704 mmHg 27%
    07:00 +34°C° 0 mm 3 mps 704 mmHg 26%
    08:00 +35°C° 0 mm 3 mps 705 mmHg 25%
    09:00 +36°C° 0 mm 3 mps 705 mmHg 23%
    10:00 +37°C° 0 mm 4 mps 705 mmHg 20%
    11:00 +40°C° 0 mm 4 mps 705 mmHg 18%
    12:00 +40°C° 0 mm 5 mps 704 mmHg 17%
    13:00 +41°C° 0 mm 5 mps 704 mmHg 16%
    14:00 +42°C° 0 mm 5 mps 703 mmHg 16%
    15:00 +41°C° 0 mm 5 mps 703 mmHg 16%
    16:00 +41°C° 0 mm 5 mps 703 mmHg 16%
    17:00 +41°C° 0 mm 5 mps 703 mmHg 17%
    18:00 +38°C° 0 mm 4 mps 703 mmHg 19%
    19:00 +37°C° 0 mm 4 mps 703 mmHg 21%
    20:00 +36°C° 0 mm 3 mps 703 mmHg 24%
    21:00 +35°C° 0 mm 3 mps 703 mmHg 24%
    22:00 +34°C° 0 mm 3 mps 703 mmHg 25%
    23:00 +34°C° 0 mm 2 mps 703 mmHg 26%
    Show more